This demonstration page uses our WeatherBlox Daily Observations layout. Learn more.

Left ArrowRight Arrow

38.89511, -77.03637

Hourly Observations for November 19, 2015

Temp ( °F °C ) Dew Point ( °F °C ) Humidity (%) Winds ( mph kmh ) Pressure ( in mb ) Visibility ( mi km ) Precip ( " mm )
12:52 am 00:52 Cloudy 62 16.7 54 12.2 75 75 SSE 9 15 30.19 1023 10 16 N/A
1:52 am 01:52 Cloudy 62 16.7 54 12.2 75 75 SSE 6 9 30.18 1022 10 16 N/A
2:52 am 02:52 Cloudy 62 16.7 55 12.8 78 78 SSE 7 11 30.17 1022 10 16 N/A
3:52 am 03:52 Cloudy 62 16.7 56 13.3 80 80 SE 6 9 30.14 1021 10 16 N/A
4:52 am 04:52 Cloudy 62 16.7 57 13.9 84 84 SSE 5 7 30.12 1020 10 16 N/A
5:35 am 05:35 Cloudy with Rain 61 16.1 57 13.9 87 87 SSE 6 9 30.12 1020 6 10 0.02 0.51
5:52 am 05:52 Cloudy with Light Rain 61 16.1 58 14.4 90 90 SSE 5 7 30.11 1020 8 13 0.04 1.02
6:37 am 06:37 Cloudy 62 16.7 58 14.4 86 86 SSE 8 13 30.06 1018 10 16 0.01 0.25
6:52 am 06:52 Cloudy 62 16.7 58 14.4 86 86 SSE 14 22 30.06 1018 10 16 0.01 0.25
7:15 am 07:15 Cloudy 63 17.2 58 14.4 84 84 SSE 17 28 30.09 1019 10 16 N/A
7:52 am 07:52 Cloudy 63 17.2 59 15 87 87 S 15 24 30.08 1019 10 16 N/A
8:31 am 08:31 Cloudy 64 17.8 60 15.6 87 87 S 18 30 30.09 1019 10 16 N/A
8:52 am 08:52 Cloudy 64 17.8 60 15.6 87 87 SSE 20 31 30.07 1018 10 16 N/A
9:52 am 09:52 Cloudy 64 17.8 60 15.6 87 87 S 16 26 30.06 1018 10 16 N/A
10:31 am 10:31 Cloudy with Drizzle 64 17.8 61 16.1 90 90 S 17 28 30.06 1018 4 6 N/A
10:52 am 10:52 Cloudy with Drizzle 63 17.2 60 15.6 90 90 S 16 26 30.05 1018 7 11 N/A
11:09 am 11:09 Cloudy with Light Rain 63 17.2 61 16.1 93 93 S 13 20 30.06 1018 5 8 N/A
11:33 am 11:33 Cloudy with Light Rain 63 17.2 61 16.1 93 93 S 9 15 30.03 1017 3 5 0.01 0.25
11:52 am 11:52 Cloudy with Light Rain 62 16.7 61 16.1 96 96 S 9 15 30.02 1017 4 6 0.01 0.25
12:04 pm 12:04 Cloudy with Light Rain 63 17 61 16 94 94 S 9 15 30.00 1016 3 5 N/A
12:28 pm 12:28 Cloudy with Light Rain 63 17 63 17 100 100 S 8 13 30.00 1016 2 2 N/A
12:36 pm 12:36 Cloudy with Light Rain 63 17 63 17 100 100 S 8 13 30.00 1016 3 4 N/A
12:47 pm 12:47 Cloudy with Light Rain 63 17 63 17 100 100 S 7 11 30.00 1016 4 6 0.03 0.76
12:52 pm 12:52 Cloudy with Light Rain 63 17.2 62 16.7 97 97 S 8 13 29.99 1016 2 3 0.04 1.02
12:55 pm 12:55 Cloudy with Rain 63 17.2 62 16.7 97 97 S 7 11 30.00 1016 2 2 0.01 0.25
1:38 pm 13:38 Cloudy with Heavy Rain 64 18 63 17 94 94 N N/A 29.97 1015 2 3 N/A
1:52 pm 13:52 Cloudy with Heavy Rain 64 17.8 63 17.2 96 96 WSW 3 6 29.96 1015 2 2 0.27 6.86
2:26 pm 14:26 Cloudy with Light Rain 63 17 63 17 100 100 N N/A 29.94 1014 1 2 N/A
2:39 pm 14:39 Mostly Cloudy with Light Rain 63 17.2 62 16.7 97 97 N N/A 29.94 1014 1 1 0.11 2.79
2:52 pm 14:52 Cloudy with Light Rain 64 17.8 63 17.2 96 96 N N/A 29.94 1014 1 2 0.17 4.32
3:01 pm 15:01 Cloudy with Light Rain 64 17.8 63 17.2 96 96 NNE 3 6 29.94 1014 1 2 0.01 0.25
3:18 pm 15:18 Cloudy with Light Rain 64 18 63 17 94 94 NE 3 6 29.94 1014 1 1 N/A
3:20 pm 15:20 Cloudy with Rain 64 18 63 17 94 94 N N/A 29.94 1014 1 1 N/A
3:24 pm 15:24 Cloudy with Rain 64 18 63 17 94 94 N 3 6 29.94 1014 1 1 N/A
3:31 pm 15:31 Cloudy with Light Rain 64 17.8 63 17.2 96 96 NNE 3 6 29.94 1014 1 1 0.05 1.27
3:37 pm 15:37 Cloudy with Light Rain 64 17.8 64 17.8 100 100 N N/A 29.94 1014 1 2 0.05 1.27
3:40 pm 15:40 Cloudy with Light Rain 64 18 64 18 100 100 N N/A 29.94 1014 3 5 N/A
3:52 pm 15:52 Cloudy with Mist and Fog 64 17.8 64 17.8 100 100 N N/A 29.94 1014 2 3 0.05 1.27
3:59 pm 15:59 Cloudy with Mist and Fog 64 17.8 64 17.8 100 100 N N/A 29.94 1014 2 3 N/A
4:04 pm 16:04 Cloudy with Mist and Fog 64 18 64 18 100 100 N N/A 29.94 1014 2 3 N/A
4:10 pm 16:10 Cloudy with Mist and Fog 64 17.8 64 17.8 100 100 N N/A 29.94 1014 2 3 N/A
4:19 pm 16:19 Cloudy with Light Rain 64 17.8 64 17.8 100 100 N N/A 29.94 1014 1 1 0.01 0.25
4:32 pm 16:32 Cloudy with Light Rain 64 18 64 18 100 100 N N/A 29.94 1014 2 2 N/A
4:34 pm 16:34 Cloudy with Light Rain 64 18 64 18 100 100 N N/A 29.94 1014 2 2 N/A
4:37 pm 16:37 Mostly Cloudy with Light Rain 65 18.3 64 17.8 97 97 E 3 6 29.94 1014 3 5 0.04 1.02
4:42 pm 16:42 Mostly Cloudy with Light Rain 63 17 63 17 100 100 E 8 13 29.91 1013 2 3 N/A
4:45 pm 16:45 Mostly Cloudy with Light Rain 61 16.1 61 16.1 100 100 E 10 17 29.91 1013 1 2 0.04 1.02
4:48 pm 16:48 Mostly Cloudy with Light Rain 61 16 61 16 100 100 ESE 9 15 29.91 1013 1 1 N/A
4:52 pm 16:52 Mostly Cloudy with Light Rain 61 16.1 61 16.1 100 100 ESE 6 9 29.92 1013 1 1 0.04 1.02
4:54 pm 16:54 Cloudy with Light Rain 61 16 61 16 100 100 ESE 5 7 29.91 1013 2 3 N/A
4:56 pm 16:56 Mostly Cloudy with Mist and Fog 63 17 61 16 94 94 ESE 5 7 29.91 1013 2 3 N/A
5:01 pm 17:01 Mostly Cloudy 62 16.7 62 16.7 100 100 N N/A 29.91 1013 7 11 N/A
5:29 pm 17:29 Cloudy with Mist and Fog 63 17.2 62 16.7 97 97 N N/A 29.94 1014 6 10 N/A
5:52 pm 17:52 Cloudy with Mist and Fog 64 17.8 64 17.8 100 100 N N/A 29.95 1014 5 8 N/A
6:40 pm 18:40 Cloudy with Mist and Fog 64 18 64 18 100 100 W 5 7 29.97 1015 3 4 N/A
6:52 pm 18:52 Cloudy with Mist and Fog 65 18.3 64 17.8 97 97 W 3 6 29.97 1015 2 3 N/A
7:08 pm 19:08 Cloudy with Mist and Fog 64 18 64 18 100 100 W 5 7 29.97 1015 2 3 N/A
7:10 pm 19:10 Cloudy with Drizzle 64 18 64 18 100 100 W 6 9 29.97 1015 2 3 N/A
7:31 pm 19:31 Cloudy with Drizzle 65 18.3 64 17.8 97 97 WSW 3 6 30.00 1016 3 5 N/A
7:33 pm 19:33 Cloudy with Mist and Fog 65 18.3 64 17.8 97 97 WSW 3 6 30.00 1016 4 6 N/A
7:52 pm 19:52 Cloudy with Mist and Fog 65 18.3 64 17.8 97 97 SSW 3 6 29.99 1016 5 8 N/A
8:52 pm 20:52 Cloudy with Mist and Fog 65 18.3 63 17.2 93 93 W 3 6 30.00 1016 5 8 N/A
9:34 pm 21:34 Cloudy with Mist and Fog 64 18 63 17 94 94 WNW 3 6 30.00 1016 6 10 N/A
9:48 pm 21:48 Mostly Cloudy with Mist and Fog 64 18 63 17 94 94 NW 5 7 30.00 1016 6 10 N/A
9:52 pm 21:52 Mostly Cloudy with Mist and Fog 63 17.2 62 16.7 97 97 N 6 9 30.01 1016 6 10 N/A
10:00 pm 22:00 Mostly Cloudy with Mist and Fog 63 17 61 16 94 94 N 6 9 30.03 1017 2 3 N/A
10:08 pm 22:08 Mostly Cloudy with Mist and Fog 63 17 61 16 94 94 N 7 11 30.03 1017 6 10 N/A
10:11 pm 22:11 Mostly Cloudy with Mist and Fog 61 16.1 61 16.1 100 100 N 7 11 30.03 1017 6 10 N/A
10:52 pm 22:52 Partly Cloudy 62 16.7 59 15 90 90 NW 7 11 30.01 1016 10 16 N/A
11:52 pm 23:52 Clear 60 15.6 51 10.6 72 72 NNW 8 13 30.02 1017 10 16 N/A

Powered by AerisWeather